SCP
0 0 0 0 0 0 0 0 0 0 0 0 0 0 0 0 0 0 0 0 0 0 0 0 0 0 0 0 0 0 0 0 0 0 0 0 0 0
0 0 0 0 0 0 0 0 0 0 0 0 0 0 0 0 0 0 0 0 0 0 0 0 0 0 0 0 0 0 0 0 0 0 0 0 0 0
0 0 0 0 0 0 0 0 0 0 0 0 0 0 0 0 0 0 0 0 0 0 0 0 0 0 0 0 0 0 0 0 0 0 0 0 0 0
0 0 0 0 0 0 0 0 0 0 0 0 0 0 0 0 0 0 0 0 0 0 0 0 0 0 0 0 0 0 0 0 0 0 0 0 0 0
0 0 0 0 0 0 0 0 0 0 0 0 0 0 0 0 0 0 0 0 0 0 0 0 0 0 0 0 0 0 0 0 0 0 0 0 0 0
0 0 0 0 0 0 0 0 0 0 0 0 0 0 0 0 0 0 0 0 0 0 0 0 0 0 0 0 0 0 0 0 0 0 0 0 0 0
0 0 0 0 0 0 0 0 0 0 0 0 0 0 0 0 0 0 0 0 0 0 0 0 0 0 0 0 0 0 0 0 0 0 0 0 0 0
1 1 0 0 0 0 0 0 0 0 0 0 0 0 0 0 0 0 0 0 0 0 0 0 0 0 0 0 0 0 0 0 0 0 0 0 0 0
1 1 0 0 0 0 0 0 0 0 0 0 0 0 0 0 0 0 0 0 0 0 0 0 0 0 0 0 0 0 0 0 0 0 0 0 0 0
1 0 0 0 0 0 0 0 0 0 0 0 0 0 0 0 0 0 0 0 0 0 0 0 0 0 0 0 0 0 0 0 0 0 0 0 0 0
0 0 0 0 0 0 0 0 0 0 0 0 0 0 0 0 0 0 0 0 0 0 0 0 0 0 0 0 0 0 0 0 0 0 0 0 0 0
0 0 0 0 0 0 0 0 0 0 0 0 0 0 0 0 0 0 0 0 0 0 0 0 0 0 0 0 0 0 0 0 0 0 0 0 0 0
0 0 0 0 0 0 0 0 0 0 0 0 0 0 0 0 0 0 0 0 0 0 0 0 0 0 0 0 0 0 0 0 0 0 0 0 0 0
0 0 0 0 0 0 0 0 0 0 0 0 0 0 0 0 0 0 0 0 0 0 0 0 0 0 0 0 0 0 0 0 0 0 0 0 0 0
0 0 0 0 0 0 0 0 0 0 0 0 0 0 0 0 0 0 0 0 0 0 0 0 0 0 0 0 0 0 0 0 0 0 0 0 0 0
0 0 0 0 0 0 0 0 0 0 0 0 0 0 0 0 0 0 0 0 0 0 0 0 0 0 0 0 0 0 0 0 0 0 0 0 0 0
0 0 0 0 0 0 0 0 0 0 0 0 0 0 0 0 0 0 0 0 0 0 0 0 0 0 0 0 0 0 0 0 0 0 0 0 0 0
0 0 0 0 0 0 0 0 0 0 0 0 0 0 0 0 0 0 0 0 0 0 0 0 0 0 0 0 0 0 0 0 0 0 0 0 0 0
0 0 0 0 0 0 0 0 0 0 0 0 0 0 0 0 0 0 0 0 0 0 0 0 0 0 0 0 0 0 0 0 0 0 0 0 0 0
0 0 0 0 0 0 0 0 0 0 0 0 0 0 0 0 0 0 0 0 0 0 0 0 0 0 0 0 0 0 0 0 0 0 0 0 0 0
0 0 0 0 0 0 0 0 0 0 0 0 0 0 0 0 0 0 0 0 0 0 0 0 0 0 0 0 0 0 0 0 0 0 0 0 0 0
0 0 0 0 0 0 0 0 0 0 0 0 0 0 0 0 0 0 0 0 0 0 0 0 0 0 0 0 0 0 0 0 0 0 0 0 0 0
0 0 0 0 0 0 0 0 0 0 0 0 0 0 0 0 0 0 0 0 0 0 0 0 0 0 0 0 0 0 0 0 0 0 0 0 0 0
Wind_Speed
5 5 4 4 4 3 3 3 3 3 3 3 1 2 2 2 4 4 3 7 9 10 10 9 9 9 9 8 8 8 7 7 7 7 7 7 7 7
3 4 4 4 3 3 3 2 3 3 3 2 2 1 2 3 4 3 3 6 8 9 9 9 9 8 8 8 8 7 7 7 7 7 7 7 7 7
3 4 4 4 3 3 2 2 2 2 3 3 1 1 1 1 2 2 2 2 4 7 8 8 8 8 7 7 7 7 7 7 7 7 7 7 7 8
3 3 3 3 3 3 2 3 3 3 3 3 2 1 2 2 2 2 2 2 2 5 8 8 8 7 7 7 6 6 6 6 6 7 7 7 7 8
3 3 3 3 3 3 3 3 2 3 2 2 2 1 1 1 1 2 1 1 2 3 6 7 7 7 7 7 6 6 6 6 6 6 6 7 7 7
2 2 2 2 3 3 3 3 2 2 2 2 2 2 2 2 2 2 1 1 1 2 2 4 6 7 7 7 7 7 6 6 6 7 7 7 7 6
2 2 1 1 2 1 2 1 2 2 2 2 2 2 1 2 2 2 2 1 2 1 2 2 3 3 4 6 7 7 7 7 7 8 8 8 7 7
2 2 1 1 1 1 1 2 2 2 2 2 2 2 2 2 1 2 2 2 2 1 2 2 3 3 3 3 5 7 7 7 7 8 8 8 8 8
1 2 2 1 1 1 1 1 1 1 3 3 3 3 2 1 2 2 2 2 2 2 2 2 2 3 2 4 8 8 8 8 8 8 8 8 8 8
1 2 1 2 2 3 2 1 1 1 1 2 2 2 1 1 2 2 2 2 2 2 2 2 2 2 3 3 7 8 8 9 8 8 8 8 8 8
0 2 2 2 3 4 2 2 1 1 2 2 1 0 1 2 2 1 1 1 2 2 2 2 2 2 2 3 5 9 9 9 9 9 9 9 9 8
1 2 4 2 2 3 2 2 2 2 1 1 1 0 1 2 2 2 2 2 2 2 2 2 2 2 2 2 3 4 5 7 9 9 9 9 9 6
1 1 2 2 1 2 2 2 2 3 2 1 1 1 1 0 1 1 1 2 2 2 2 2 2 2 2 2 2 3 4 4 4 5 7 9 10 8
2 2 1 0 1 2 2 2 3 3 2 1 1 1 1 1 1 1 1 1 1 2 1 1 2 2 2 2 2 3 4 4 4 5 5 8 9 9
2 3 1 1 1 2 1 2 3 2 2 1 1 1 1 1 1 1 1 1 1 1 1 1 1 1 2 2 2 3 3 4 4 5 5 6 6 6
1 1 2 2 2 2 1 2 2 1 2 2 1 1 0 1 1 1 1 1 1 1 0 0 1 1 1 1 2 2 3 3 4 4 4 4 5 5
2 1 1 1 1 1 1 1 1 1 1 1 1 1 0 1 1 1 1 1 1 1 1 1 1 1 1 1 1 2 2 3 3 4 4 4 4 5
2 1 1 1 1 1 1 1 1 1 1 1 1 1 1 0 0 0 0 1 1 1 1 1 1 1 1 2 2 2 2 2 3 4 3 4 4 4
1 1 1 1 2 2 2 1 1 1 1 1 1 1 2 1 1 0 0 1 1 1 0 1 1 1 2 3 3 5 3 2 2 3 3 3 3 4
0 1 1 1 2 2 2 2 2 2 2 2 2 1 1 1 1 1 1 1 1 1 1 1 2 2 3 2 2 3 6 4 3 3 3 3 2 3
0 1 1 2 2 2 2 2 2 2 2 2 2 2 2 1 1 2 2 1 1 1 2 2 2 3 2 2 2 2 3 6 5 3 3 3 3 3
1 1 1 2 2 2 2 2 2 2 2 2 2 2 2 2 2 2 2 1 2 2 2 2 2 2 2 3 3 2 2 2 5 6 5 4 3 4
2 2 1 2 2 2 2 2 3 3 3 3 3 3 3 3 2 2 2 2 2 3 3 2 2 2 3 3 3 2 3 3 3 4 4 7 8 7
Wind_Direction
250 246 241 245 243 241 225 205 208 241 252 243 232 207 163 172 176 177 181 188 195 199 202 202 204 207 208 209 208 206 207 208 206 206 210 211 209 209
251 258 255 256 256 255 242 226 211 223 246 240 239 227 207 212 172 182 191 183 194 197 196 196 197 199 198 199 199 200 200 200 197 198 202 202 198 197
263 262 262 259 260 271 266 245 234 228 245 260 257 219 221 218 176 193 189 184 189 195 196 193 194 192 191 190 191 192 193 193 194 196 195 190 187 187
266 262 267 262 247 256 265 255 243 233 228 245 256 252 242 222 201 212 212 202 184 184 188 187 187 184 182 183 183 186 191 192 192 192 189 184 185 186
270 263 264 264 259 258 261 264 262 261 236 225 240 234 236 217 207 230 224 198 210 186 182 181 176 173 176 177 179 184 187 187 186 185 182 180 180 181
287 289 287 270 264 263 257 261 266 268 251 233 234 228 217 213 195 203 228 225 228 217 173 164 167 173 179 178 181 183 185 186 186 182 179 176 176 178
297 298 302 338 351 321 298 300 289 278 273 257 248 251 232 200 208 214 221 235 251 205 176 184 172 178 189 190 190 190 188 188 186 184 182 179 180 179
313 311 265 85 29 359 325 299 271 262 273 269 259 248 248 225 211 211 218 230 244 207 189 213 183 186 184 176 176 179 184 184 184 184 185 184 182 180
324 311 307 1 60 354 293 284 323 287 253 260 261 251 247 230 207 231 233 244 250 214 204 225 200 200 181 168 172 177 179 180 183 184 183 182 180 178
352 345 353 30 9 350 313 305 336 9 289 264 261 248 244 215 216 224 233 245 247 221 196 217 207 198 168 171 177 180 185 187 186 185 186 185 182 180
65 32 24 56 9 349 327 330 338 2 16 29 45 259 216 207 199 187 210 227 257 233 202 197 191 183 176 184 185 187 191 193 192 192 191 191 191 187
156 117 75 56 12 353 320 311 294 301 307 339 49 80 149 161 191 210 213 235 260 232 198 191 189 171 192 189 178 181 195 201 199 199 197 195 190 191
317 122 98 70 37 342 319 312 297 292 275 246 220 159 136 163 196 220 240 252 261 251 186 180 198 193 192 183 182 186 190 188 192 201 203 199 194 191
334 23 70 28 298 304 311 321 308 297 265 246 223 205 217 230 234 226 216 277 295 284 235 199 213 200 200 196 192 182 190 189 186 189 191 195 203 206
1 24 24 247 276 245 250 299 304 290 289 272 264 250 228 196 162 185 193 210 260 287 238 236 246 213 216 218 191 178 188 198 192 189 189 192 194 193
273 244 221 238 272 309 279 245 249 289 306 300 303 284 145 150 178 185 194 207 226 241 223 221 226 199 238 246 196 189 182 187 188 194 191 189 189 195
334 287 237 211 238 253 252 260 275 264 287 305 313 315 215 189 213 202 202 214 226 224 203 207 203 170 197 236 241 222 201 195 187 190 192 194 195 195
355 306 327 341 333 330 339 1 359 350 341 334 331 332 320 282 244 239 232 244 243 219 192 184 191 214 230 239 235 240 225 209 192 187 189 195 203 200
354 327 3 358 350 352 1 5 11 7 348 336 343 345 336 331 329 294 256 267 275 267 208 192 202 226 246 250 232 215 221 223 196 187 193 197 203 202
283 344 349 359 14 11 11 6 4 8 356 336 337 342 334 328 325 315 303 272 265 263 246 223 217 230 250 267 257 221 210 212 205 208 207 203 199 190
33 8 355 359 17 21 15 6 354 359 360 343 341 344 338 331 320 311 304 274 263 261 261 253 245 237 251 268 263 242 214 209 209 202 196 198 203 200
354 2 13 11 15 12 4 357 349 1 4 354 348 340 330 323 309 298 299 289 267 275 275 264 241 242 247 256 261 258 244 209 219 227 221 208 200 209
9 6 18 20 24 14 9 5 8 15 11 355 348 341 334 322 310 302 295 291 293 288 281 266 245 238 252 253 251 247 241 226 212 208 226 226 224 226